Laconia, NH

1:04 AM EDT on August 24, 2017 (GMT -0400)
Laconia Municipal

Weather History for KLCI - March, 2015

Change the Weather History Date:

Monday, March 16, 2015

  Actual Average Record
Temperature  
Mean Temperature 28 °F -  
Max Temperature 39 °F 45 °F 63 °F (1990)
Min Temperature 17 °F 22 °F -1 °F (1993)
Degree Days  
Heating Degree Days 37    
Moisture  
Dew Point 12 °F    
Average Humidity 51    
Maximum Humidity 74    
Minimum Humidity 26    
Precipitation  
Precipitation 0.00 in - - ()
Sea Level Pressure  
Sea Level Pressure 29.83 in    
Wind  
Wind Speed 6 mph (WSW)    
Max Wind Speed 14 mph    
Max Gust Speed 23 mph    
Averages and records for this station are not official NWS values.
T = Trace of Precipitation, MM = Missing Value Source: NWS Daily Summary

Daily Weather History Graph

Daily Weather History Graph

Search for Another Location

Airport or City:

Trip Planner

Search our weather history database for the weather conditions in past years. The results will help you decide how hot, cold, wet, or windy it might be!

Date:

Astronomy

Mar. 16, 2015 Rise Set
Actual Time 6:56 AM EDT 6:52 PM EDT
Civil Twilight 6:28 AM EDT 7:21 PM EDT
Nautical Twilight 5:54 AM EDT 7:54 PM EDT
Astronomical Twilight 5:20 AM EDT 8:28 PM EDT
Moon 4:13 AM EDT (3/16) 2:37 PM EDT (3/16)
Length of Visible Light 12h 53m
Length of Day
11h 56m
Waning Crescent, 19% of the Moon is Illuminated
Mar 16
Waning Crescent
Mar 20
New
Mar 27
First Quarter
Apr 4
Full
Apr 11
Last Quarter

Hourly Weather History & Observations

Time (EDT) Temp. Windchill Dew Point Humidity Pressure Visibility Wind Dir Wind Speed Gust Speed Precip Events Conditions
12:15 AM 24.8 °F 16.9 °F 10.4 °F 54% 29.87 in - WNW 6.9 mph 18.4 mph N/A   Mostly Cloudy
12:35 AM 24.8 °F 12.9 °F 10.4 °F 54% 29.86 in - NW 13.8 mph 23.0 mph N/A   Partly Cloudy
12:55 AM 24.8 °F 16.1 °F 10.4 °F 54% 29.85 in - WNW 8.1 mph - N/A   Clear
1:15 AM 23.0 °F 15.8 °F 10.4 °F 59% 29.85 in - SW 5.8 mph - N/A   Clear
1:35 AM 23.0 °F 14.7 °F 12.2 °F 63% 29.85 in - West 6.9 mph - N/A   Clear
1:55 AM 24.8 °F 16.1 °F 12.2 °F 59% 29.85 in - WNW 8.1 mph 17.3 mph N/A   Clear
2:15 AM 24.8 °F 16.9 °F 12.2 °F 59% 29.85 in - WNW 6.9 mph 16.1 mph N/A   Clear
2:35 AM 24.8 °F 17.9 °F 12.2 °F 59% 29.85 in - West 5.8 mph - N/A   Clear
2:55 AM 24.8 °F 16.1 °F 12.2 °F 59% 29.85 in - WNW 8.1 mph 17.3 mph N/A   Clear
3:15 AM 24.8 °F 15.3 °F 12.2 °F 59% 29.85 in - WNW 9.2 mph - N/A   Clear
3:35 AM 24.8 °F 20.5 °F 12.2 °F 59% 29.86 in - WSW 3.5 mph - N/A   Clear
3:55 AM 21.2 °F 13.6 °F 8.6 °F 58% 29.86 in - West 5.8 mph - N/A   Clear
4:15 AM 23.0 °F 17.0 °F 10.4 °F 59% 29.87 in - WNW 4.6 mph - N/A   Clear
4:35 AM 23.0 °F 17.0 °F 10.4 °F 59% 29.88 in - SSW 4.6 mph - N/A   Clear
4:55 AM 23.0 °F - 10.4 °F 59% 29.88 in - Calm Calm - N/A   Clear
5:15 AM 21.2 °F - 8.6 °F 58% 29.88 in - Calm Calm - N/A   Clear
5:35 AM 21.2 °F 13.6 °F 10.4 °F 63% 29.88 in - SW 5.8 mph - N/A   Clear
5:55 AM 21.2 °F 13.6 °F 10.4 °F 63% 29.89 in - SW 5.8 mph - N/A   Clear
6:15 AM 21.2 °F 16.4 °F 10.4 °F 63% 29.88 in - WSW 3.5 mph - N/A   Clear
6:35 AM 19.4 °F 14.3 °F 10.4 °F 68% 29.89 in - SW 3.5 mph - N/A   Clear
6:55 AM 19.4 °F - 8.6 °F 63% 29.89 in - Calm Calm - N/A   Clear
7:15 AM 17.6 °F 12.3 °F 10.4 °F 73% 29.90 in - WSW 3.5 mph - N/A   Clear
7:35 AM 19.4 °F 12.8 °F 12.2 °F 74% 29.90 in - WSW 4.6 mph - N/A   Clear
7:55 AM 21.2 °F 13.6 °F 10.4 °F 63% 29.91 in - SW 5.8 mph - N/A   Clear
8:15 AM 21.2 °F 16.4 °F 10.4 °F 63% 29.91 in - SSW 3.5 mph - N/A   Clear
8:35 AM 23.0 °F 15.8 °F 8.6 °F 54% 29.90 in - SSW 5.8 mph - N/A   Clear
8:55 AM 24.8 °F 16.9 °F 8.6 °F 50% 29.91 in - WSW 6.9 mph - N/A   Clear
9:15 AM 24.8 °F 19.1 °F 8.6 °F 50% 29.90 in - WSW 4.6 mph - N/A   Clear
9:35 AM 26.6 °F 21.2 °F 8.6 °F 47% 29.90 in - WSW 4.6 mph - N/A   Clear
9:55 AM 26.6 °F 18.2 °F 8.6 °F 47% 29.90 in - SW 8.1 mph - N/A   Clear
10:15 AM 28.4 °F 22.2 °F 8.6 °F 43% 29.89 in - SW 5.8 mph - N/A   Clear
10:35 AM 30.2 °F 22.6 °F 8.6 °F 40% 29.88 in - SW 8.1 mph - N/A   Clear
10:55 AM 30.2 °F 21.9 °F 6.8 °F 37% 29.87 in - WSW 9.2 mph - N/A   Clear
11:15 AM 33.8 °F 28.6 °F 6.8 °F 32% 29.87 in - WSW 5.8 mph - N/A   Clear
11:35 AM 33.8 °F 27.0 °F 6.8 °F 32% 29.87 in - WSW 8.1 mph - N/A   Clear
11:55 AM 35.6 °F 28.0 °F 8.6 °F 33% 29.86 in - SW 10.4 mph - N/A   Clear
12:15 PM 33.8 °F 26.4 °F 8.6 °F 35% 29.85 in - WSW 9.2 mph - N/A   Clear
12:55 PM 35.6 °F 32.8 °F 8.6 °F 33% 29.83 in - West 3.5 mph - N/A   Clear
1:15 PM 35.6 °F 31.7 °F 8.6 °F 33% 29.82 in - SW 4.6 mph - N/A   Clear
1:35 PM 35.6 °F 31.7 °F 6.8 °F 30% 29.82 in - West 4.6 mph - N/A   Clear
1:55 PM 37.4 °F 32.1 °F 6.8 °F 28% 29.82 in - WSW 6.9 mph - N/A   Clear
2:15 PM 37.4 °F 30.8 °F 6.8 °F 28% 29.82 in - WSW 9.2 mph - N/A   Clear
2:35 PM 37.4 °F 30.8 °F 8.6 °F 30% 29.82 in - WSW 9.2 mph - N/A   Mostly Cloudy
2:55 PM 37.4 °F 31.4 °F 8.6 °F 30% 29.81 in - West 8.1 mph - N/A   Overcast
3:15 PM 39.2 °F 33.0 °F 6.8 °F 26% 29.81 in - WSW 9.2 mph - N/A   Overcast
3:35 PM 39.2 °F 33.0 °F 6.8 °F 26% 29.80 in - WSW 9.2 mph - N/A   Overcast
3:55 PM 39.2 °F 33.0 °F 8.6 °F 28% 29.79 in - WSW 9.2 mph - N/A   Mostly Cloudy
4:15 PM 39.2 °F 35.0 °F 10.4 °F 31% 29.78 in - West 5.8 mph - N/A   Overcast
4:35 PM 39.2 °F 33.6 °F 10.4 °F 31% 29.78 in - West 8.1 mph - N/A   Overcast
4:55 PM 39.2 °F 34.2 °F 10.4 °F 31% 29.77 in - West 6.9 mph - N/A   Mostly Cloudy
5:15 PM 39.2 °F 35.0 °F 10.4 °F 31% 29.78 in - WSW 5.8 mph - N/A   Partly Cloudy
5:35 PM 39.2 °F 34.2 °F 8.6 °F 28% 29.78 in - WSW 6.9 mph - N/A   Clear
5:55 PM 39.2 °F 35.0 °F 8.6 °F 28% 29.78 in - WSW 5.8 mph - N/A   Clear
6:15 PM 37.4 °F 32.8 °F 8.6 °F 30% 29.78 in - SW 5.8 mph - N/A   Clear
6:35 PM 37.4 °F - 10.4 °F 33% 29.77 in - Calm Calm - N/A   Clear
6:55 PM 33.8 °F 30.8 °F 17.6 °F 52% 29.76 in - SW 3.5 mph - N/A   Clear
7:15 PM 32.0 °F 27.5 °F 17.6 °F 55% 29.75 in - WSW 4.6 mph - N/A   Clear
7:35 PM 30.2 °F 26.7 °F 17.6 °F 60% 29.75 in - WSW 3.5 mph - N/A   Clear
7:55 PM 28.4 °F 24.6 °F 19.4 °F 69% 29.76 in - SW 3.5 mph - N/A   Clear
8:15 PM 28.4 °F - 19.4 °F 69% 29.77 in - Calm Calm - N/A   Clear
8:35 PM 28.4 °F - 21.2 °F 74% 29.77 in - Calm Calm - N/A   Clear
8:55 PM 28.4 °F - 17.6 °F 64% 29.77 in - Calm Calm - N/A   Clear
9:15 PM 28.4 °F 24.6 °F 19.4 °F 69% 29.77 in - WSW 3.5 mph - N/A   Clear
9:35 PM 26.6 °F - 17.6 °F 69% 29.77 in - Calm Calm - N/A   Clear
9:55 PM 26.6 °F 22.6 °F 19.4 °F 74% 29.76 in - SW 3.5 mph - N/A   Clear
10:15 PM 26.6 °F 22.6 °F 17.6 °F 69% 29.76 in - WSW 3.5 mph - N/A   Clear
10:35 PM 26.6 °F 22.6 °F 19.4 °F 74% 29.76 in - West 3.5 mph - N/A   Clear
10:55 PM 26.6 °F 20.0 °F 19.4 °F 74% 29.76 in - WSW 5.8 mph - N/A   Mostly Cloudy
11:15 PM 30.2 °F - 19.4 °F 64% 29.73 in - Calm Calm - N/A   Overcast
11:35 PM 28.4 °F 24.6 °F 21.2 °F 74% 29.72 in - WSW 3.5 mph - N/A   Overcast
11:55 PM 30.2 °F 22.6 °F 21.2 °F 69% 29.70 in - WSW 8.1 mph - N/A   Overcast